GW4480 Weather Reports


time (UTC)temp
F
wind
direction
speed
knots
gust
knots
rain 1hr
in
rain 24hr
in
rain mn
in
humidity
%
barometer
mb
20260507151543 61 348 1.7 5.2 0.00 0.00 0.00 86 1016.7
20260507150047 60 0 0.9 4.3 0.00 0.00 0.00 87 1016.6
20260507144546 60 304 0.0 1.7 0.00 0.00 0.00 88 1016.6
20260507143039 59 0 0.0 1.7 0.00 0.00 0.00 89 1016.5
20260507141536 58 0 0.0 0.0 0.00 0.00 0.00 89 1016.3
20260507140043 57 0 0.0 0.0 0.00 0.00 0.00 90 1016.3
20260507134536 56 0 0.0 0.0 0.00 0.00 0.00 90 1016.1
20260507133037 55 0 0.0 0.0 0.00 0.00 0.00 90 1016.1
20260507131540 55 0 0.0 0.0 0.00 0.00 0.00 90 1016.1
20260507130036 55 0 0.0 1.7 0.00 0.00 0.00 90 1015.9
20260507124543 55 117 0.0 1.7 0.00 0.00 0.00 90 1015.8
20260507123042 55 0 0.0 1.7 0.00 0.00 0.00 90 1015.7
20260507121542 55 140 0.0 1.7 0.00 0.00 0.00 90 1015.8
20260507120053 56 0 0.0 1.7 0.00 0.00 0.00 90 1015.8
20260507114544 56 112 0.9 1.7 0.00 0.00 0.00 90 1015.8
20260507113047 56 0 0.0 0.0 0.00 0.00 0.00 90 1015.9
20260507111539 56 0 0.0 0.0 0.00 0.00 0.00 90 1016.0
20260507110038 56 0 0.0 0.9 0.00 0.00 0.00 90 1015.8
20260507104547 56 105 0.0 0.9 0.00 0.00 0.00 90 1016.0
20260507103036 57 0 0.0 0.9 0.00 0.00 0.00 90 1016.1
20260507101542 57 90 0.0 1.7 0.00 0.00 0.00 91 1016.1
20260507100042 57 0 0.0 0.0 0.00 0.00 0.00 90 1016.1
20260507094539 57 0 0.0 0.9 0.00 0.00 0.00 90 1016.2
20260507093036 57 0 0.0 1.7 0.00 0.00 0.00 90 1016.3
20260507091536 57 352 0.9 1.7 0.00 0.00 0.00 89 1016.4
20260507090045 58 0 0.0 0.0 0.00 0.00 0.00 89 1016.5
20260507084539 58 0 0.0 0.9 0.00 0.00 0.00 89 1016.6
20260507083039 59 0 0.0 0.0 0.00 0.00 0.00 89 1016.8
20260507081543 59 0 0.0 0.9 0.00 0.00 0.00 89 1017.0
20260507080043 59 0 0.0 0.0 0.00 0.00 0.00 89 1017.2
20260507074541 60 0 0.0 1.7 0.00 0.00 0.00 89 1017.1
20260507073046 60 0 0.0 1.7 0.00 0.00 0.00 88 1017.1
20260507071539 60 0 0.0 0.9 0.00 0.00 0.00 88 1017.0
20260507070040 60 0 0.0 0.0 0.00 0.00 0.00 88 1017.2
20260507064542 60 0 0.0 1.7 0.00 0.00 0.00 88 1017.5
20260507063046 60 0 0.0 1.7 0.00 0.00 0.00 87 1017.4
20260507061541 61 0 0.9 2.6 0.00 0.00 0.00 87 1017.4
20260507060039 61 0 0.0 1.7 0.00 0.00 0.00 86 1017.4
20260507054539 61 0 0.0 2.6 0.00 0.00 0.00 86 1017.4
20260507053045 61 296 0.0 2.6 0.00 0.00 0.00 86 1017.6
20260507051540 61 293 0.9 3.5 0.00 0.00 0.00 86 1017.5
20260507050036 61 306 1.7 4.3 0.00 0.00 0.00 86 1017.4
20260507044543 62 299 1.7 3.5 0.00 0.00 0.00 85 1017.4
20260507043041 62 289 0.9 6.1 0.00 0.00 0.00 85 1017.3
20260507041543 62 314 1.7 6.1 0.00 0.00 0.00 85 1017.4
20260507040042 62 360 2.6 6.1 0.00 0.00 0.00 85 1017.2
20260507034544 62 294 2.6 7.0 0.00 0.00 0.00 85 1017.0
20260507033049 62 313 3.5 7.0 0.00 0.00 0.00 85 1016.9
20260507031539 62 311 3.5 9.6 0.00 0.00 0.00 84 1016.7
20260507030037 62 306 4.3 8.7 0.00 0.00 0.00 83 1016.6
20260507024543 63 302 5.2 9.6 0.00 0.00 0.00 82 1016.6
20260507023040 63 290 5.2 10.4 0.00 0.00 0.00 81 1016.3
20260507021536 64 287 5.2 9.6 0.00 0.00 0.00 78 1016.3
20260507020039 64 306 6.1 9.6 0.00 0.00 0.00 77 1016.3
20260507014543 65 331 5.2 10.4 0.00 0.00 0.00 74 1016.2
20260507013041 65 301 5.2 10.4 0.00 0.00 0.00 74 1016.2
20260507011540 66 296 5.2 11.3 0.00 0.00 0.00 75 1016.1
20260507010039 66 294 7.0 11.3 0.00 0.00 0.00 75 1016.1
20260507004535 66 285 7.0 12.2 0.00 0.00 0.00 75 1016.1
20260507003038 66 281 7.0 12.2 0.00 0.00 0.00 74 1016.0
20260507001603 66 263 7.0 13.0 0.00 0.00 0.00 75 1016.0
20260507000038 66 277 7.8 12.2 0.00 0.00 0.00 73 1016.0
20260506234547 67 252 6.1 13.0 0.00 0.00 0.00 74 1016.0
20260506233039 67 270 7.0 13.9 0.00 0.00 0.00 72 1016.0
20260506231539 66 291 8.7 14.8 0.00 0.00 0.00 73 1016.0
20260506230036 66 284 7.8 14.8 0.00 0.00 0.00 72 1016.0
20260506224557 67 274 7.0 12.2 0.00 0.00 0.00 71 1016.2
20260506223035 66 303 8.7 13.9 0.00 0.00 0.00 72 1016.2
20260506221536 67 313 7.0 13.0 0.00 0.00 0.00 70 1016.4
20260506220048 66 266 7.8 14.8 0.00 0.00 0.00 70 1016.5
20260506214539 67 267 7.0 12.2 0.00 0.00 0.00 69 1016.6
20260506213035 66 250 9.6 14.8 0.00 0.00 0.00 71 1016.7
20260506211550 66 303 7.0 13.9 0.00 0.00 0.00 70 1016.8
20260506210043 65 288 8.7 14.8 0.00 0.00 0.00 71 1017.0
20260506204542 65 271 9.6 14.8 0.00 0.00 0.00 71 1017.0
20260506203047 66 292 8.7 14.8 0.00 0.00 0.00 69 1017.0
20260506201537 66 261 8.7 16.5 0.00 0.00 0.00 69 1017.0
20260506200038 66 324 7.0 14.8 0.00 0.00 0.00 69 1017.1
20260506194543 66 294 8.7 13.9 0.00 0.00 0.00 69 1017.3
20260506193045 66 269 9.6 13.9 0.00 0.00 0.00 69 1017.4
20260506191539 66 261 9.6 15.6 0.00 0.00 0.00 69 1017.5
20260506190037 66 258 7.8 13.0 0.00 0.00 0.00 70 1017.5
20260506184544 66 256 7.0 13.9 0.00 0.00 0.00 69 1017.7
20260506183041 66 275 7.0 11.3 0.00 0.00 0.00 69 1017.8
20260506181554 65 273 7.0 13.0 0.00 0.00 0.00 70 1018.0
20260506180037 65 249 7.0 12.2 0.00 0.00 0.00 69 1018.1
20260506174536 66 282 5.2 11.3 0.00 0.00 0.00 68 1018.1
20260506173105 66 289 6.1 10.4 0.00 0.00 0.00 68 1018.2
20260506171546 64 289 3.5 9.6 0.00 0.00 0.00 68 1018.3
20260506170044 65 306 5.2 10.4 0.00 0.00 0.00 66 1018.2
20260506164539 65 330 4.3 8.7 0.00 0.00 0.00 66 1018.2
20260506163035 64 324 1.7 7.0 0.00 0.00 0.00 69 1018.3
20260506161535 63 350 5.2 8.7 0.00 0.00 0.00 69 1018.2
20260506160052 64 0 0.0 4.3 0.00 0.00 0.00 67 1018.2
20260506154544 64 96 0.0 6.1 0.00 0.00 0.00 68 1018.3
20260506153035 64 28 0.9 5.2 0.00 0.00 0.00 69 1018.2